Probability
0 0 0 0 0 0 0 0 0 0 0 0 0 0 0 0 0 0 0 0 0 0 0 0 0 0 0 0 0 0 0 0 0 0 0 0 0 0 0 0 0 0 0 0
0 0 0 0 0 0 0 0 0 0 0 0 0 0 0 0 0 0 0 0 0 0 0 0 0 0 0 0 0 0 0 0 0 0 0 0 0 0 0 0 0 0 0 0
0 0 0 0 0 0 0 0 0 0 0 0 0 0 0 0 0 0 0 0 0 0 0 0 0 0 0 0 0 0 0 0 0 0 0 0 0 0 0 0 0 0 0 0
0 0 0 0 0 0 0 0 0 0 0 0 0 0 0 0 0 0 0 0 0 0 0 0 0 0 0 0 0 0 0 0 0 0 0 0 0 0 0 0 0 0 0 0
0 0 0 0 0 0 0 0 0 0 0 0 0 0 0 0 0 0 0 0 0 0 0 0 0 0 0 0 0 0 0 0 0 0 0 0 0 0 0 0 0 0 0 0
0 0 0 0 0 0 0 0 0 0 0 0 0 0 0 0 0 0 0 0 0 0 0 0 0 0 0 0 0 0 0 0 0 0 0 0 0 0 0 0 0 0 0 0
0 0 0 0 0 0 0 0 0 0 0 0 0 0 0 0 0 0 0 0 0 0 0 0 0 0 0 0 0 0 0 0 0 0 0 0 0 0 0 0 0 0 0 0
0 0 0 0 0 0 0 0 0 0 0 0 0 0 0 0 0 0 0 0 0 0 0 0 0 0 0 0 0 0 0 0 0 0 0 0 0 0 0 0 0 0 0 0
0 0 0 0 0 0 0 0 0 0 0 0 0 0 0 0 0 0 0 0 0 0 0 0 0 0 0 0 0 0 0 0 0 0 0 0 0 0 0 0 0 0 0 0
0 0 0 0 0 0 0 0 0 0 0 0 0 0 0 0 0 0 0 0 0 0 0 0 0 0 0 0 0 0 0 0 0 0 0 0 0 0 0 0 0 0 0 0
0 0 0 0 0 0 0 0 0 0 0 0 0 0 0 0 0 0 0 0 0 0 0 0 0 0 0 0 0 0 0 0 0 0 0 0 0 0 0 0 0 0 0 0
0 0 0 0 0 0 0 0 0 0 0 0 0 0 0 0 0 0 0 0 0 0 0 0 0 0 0 0 0 0 0 0 0 0 0 0 0 0 0 0 0 0 0 0
0 0 0 0 0 0 0 0 0 0 0 0 0 0 0 0 0 0 0 0 0 0 0 0 0 0 0 0 0 0 0 0 0 0 0 0 0 0 0 0 0 0 0 0
0 0 0 0 0 0 0 0 0 0 0 0 0 0 0 0 0 0 0 0 0 0 0 0 0 0 0 0 0 0 0 0 0 0 0 0 0 0 0 0 0 0 0 0
0 0 0 0 0 0 0 0 0 0 0 0 0 0 0 0 0 0 0 0 0 0 0 0 0 0 0 0 0 0 0 0 0 0 0 0 0 0 0 0 0 0 0 0
0 0 0 0 0 0 0 0 0 0 0 0 0 0 0 0 0 0 0 0 0 0 0 0 0 0 0 0 0 0 0 0 0 0 0 0 0 0 0 0 0 0 0 0
0 0 0 0 0 0 0 0 0 0 0 0 0 0 0 0 0 0 0 0 0 0 0 0 0 0 0 0 0 0 0 0 0 0 0 0 0 0 0 0 0 0 0 0
0 0 0 0 0 0 0 0 0 0 0 0 0 0 0 0 0 0 0 0 0 0 0 0 0 0 0 0 0 0 0 0 0 0 0 0 0 0 0 0 0 0 0 0
0 0 0 0 0 0 0 0 0 0 0 0 0 0 0 0 0 0 0 0 0 0 0 0 0 0 0 0 0 0 0 0 0 0 0 0 0 0 0 0 0 0 0 0
0 0 0 0 0 0 0 0 0 0 0 0 0 0 0 0 0 0 0 0 0 0 0 0 0 0 0 0 0 0 0 0 0 0 0 0 0 0 0 0 0 0 0 0
0 0 0 0 0 0 0 0 0 0 0 0 0 0 0 0 0 0 0 0 0 0 0 0 0 0 0 0 0 0 0 0 0 0 0 0 0 0 0 0 0 0 0 0
0 0 0 0 0 0 0 0 0 0 0 0 0 0 0 0 0 0 0 0 0 0 0 0 0 0 0 0 0 0 0 0 0 0 0 0 0 0 0 0 0 0 0 0
0 0 0 0 0 0 0 0 0 0 0 0 0 0 0 0 0 0 0 0 0 0 0 0 0 0 0 0 0 0 0 0 0 0 0 0 0 0 0 0 0 0 0 0
0 0 0 0 0 0 0 0 0 0 0 0 0 0 0 0 0 0 0 0 0 0 0 0 0 0 0 0 0 0 0 0 0 0 0 0 0 0 0 0 0 0 0 0
0 0 0 0 0 0 0 0 0 0 0 0 0 0 0 0 0 0 0 0 0 0 0 0 0 0 0 0 0 0 0 0 0 0 0 0 0 0 0 0 0 0 0 0
0 0 0 0 0 0 0 0 0 0 0 0 0 0 0 0 0 0 0 0 0 0 0 0 0 0 0 0 0 0 0 0 0 0 0 0 0 0 0 0 0 0 0 0
Height
5642 5652 5662 5673 5682 5690 5697 5704 5710 5717 5722 5728 5734 5740 5745 5749 5755 5762 5768 5774 5779 5784 5789 5794 5799 5803 5806 5810 5813 5815 5818 5820 5822 5823 5825 5826 5827 5827 5827 5827 5827 5826 5826 5824
5642 5652 5662 5669 5677 5684 5691 5698 5705 5710 5715 5721 5727 5732 5737 5742 5749 5756 5761 5767 5772 5777 5782 5787 5792 5796 5799 5802 5805 5807 5810 5812 5815 5816 5818 5819 5820 5820 5820 5820 5819 5818 5817 5815
5642 5652 5659 5667 5674 5681 5688 5695 5701 5706 5711 5715 5721 5725 5731 5738 5743 5749 5755 5761 5765 5771 5775 5780 5785 5789 5792 5795 5797 5800 5802 5804 5807 5809 5810 5811 5812 5812 5812 5812 5811 5810 5809 5807
5641 5649 5657 5664 5671 5678 5685 5691 5696 5701 5706 5711 5716 5720 5727 5732 5737 5743 5749 5755 5759 5763 5768 5773 5777 5781 5784 5787 5789 5792 5794 5796 5799 5800 5802 5803 5803 5804 5803 5803 5802 5801 5800 5798
5640 5647 5655 5662 5670 5676 5682 5687 5693 5697 5701 5706 5709 5714 5722 5725 5731 5738 5743 5747 5751 5756 5760 5765 5769 5773 5776 5779 5782 5784 5787 5788 5790 5792 5793 5794 5794 5795 5794 5793 5793 5791 5790 5788
5642 5648 5654 5661 5667 5673 5678 5684 5688 5691 5695 5700 5705 5707 5714 5720 5726 5731 5735 5739 5743 5748 5752 5756 5760 5764 5767 5770 5773 5776 5778 5780 5781 5783 5784 5785 5785 5785 5785 5784 5782 5781 5779 5777
5641 5647 5653 5659 5664 5669 5674 5680 5683 5686 5689 5694 5698 5699 5709 5715 5718 5722 5726 5730 5734 5739 5743 5747 5752 5755 5759 5762 5765 5767 5769 5771 5772 5774 5774 5775 5775 5775 5774 5773 5772 5770 5769 5766
5641 5647 5652 5657 5662 5666 5671 5676 5680 5683 5686 5690 5691 5694 5703 5707 5710 5713 5717 5721 5726 5730 5735 5739 5743 5746 5750 5753 5756 5758 5760 5762 5763 5764 5765 5766 5766 5765 5764 5763 5762 5760 5758 5756
5642 5647 5651 5655 5660 5664 5667 5671 5675 5679 5680 5683 5685 5690 5695 5699 5703 5706 5710 5714 5718 5722 5726 5730 5734 5737 5741 5744 5747 5749 5751 5753 5754 5755 5755 5756 5755 5755 5754 5753 5751 5750 5748 5746
5642 5645 5649 5653 5657 5660 5664 5667 5670 5673 5675 5677 5680 5683 5688 5693 5696 5699 5703 5706 5710 5714 5717 5721 5725 5728 5732 5735 5737 5740 5742 5743 5744 5745 5745 5745 5745 5745 5744 5743 5741 5740 5738 5736
5640 5644 5647 5650 5653 5657 5661 5663 5665 5668 5670 5672 5674 5680 5682 5685 5689 5692 5695 5698 5702 5706 5709 5713 5716 5720 5723 5726 5728 5730 5732 5733 5734 5735 5735 5735 5735 5735 5734 5733 5731 5730 5728 5726
5638 5642 5644 5648 5651 5653 5656 5658 5661 5663 5665 5666 5669 5675 5675 5679 5682 5685 5688 5692 5695 5698 5701 5705 5708 5711 5714 5717 5719 5721 5722 5724 5725 5725 5725 5726 5725 5725 5724 5723 5722 5720 5718 5716
5637 5640 5642 5645 5649 5650 5651 5654 5656 5658 5659 5660 5662 5669 5669 5672 5675 5678 5681 5684 5687 5690 5694 5697 5700 5703 5705 5708 5710 5712 5713 5714 5715 5716 5716 5716 5716 5715 5715 5714 5712 5711 5709 5707
5634 5637 5640 5643 5644 5646 5648 5650 5651 5652 5653 5655 5657 5661 5664 5666 5669 5672 5674 5677 5680 5683 5686 5689 5692 5695 5697 5699 5701 5703 5704 5706 5706 5707 5707 5707 5707 5706 5705 5704 5703 5701 5700 5698
5631 5634 5635 5637 5639 5641 5643 5644 5645 5647 5649 5651 5653 5654 5658 5660 5663 5665 5668 5670 5673 5676 5679 5682 5684 5687 5689 5691 5693 5695 5696 5697 5698 5699 5699 5698 5698 5697 5696 5695 5694 5692 5691 5689
5628 5630 5631 5633 5635 5636 5638 5640 5641 5642 5644 5645 5647 5649 5652 5654 5656 5659 5662 5664 5666 5669 5672 5674 5677 5679 5682 5684 5686 5687 5689 5690 5690 5691 5691 5690 5690 5689 5688 5687 5685 5684 5682 5680
5624 5626 5628 5630 5631 5632 5634 5636 5636 5637 5639 5640 5641 5645 5646 5648 5650 5653 5655 5657 5660 5663 5665 5668 5670 5673 5675 5677 5679 5680 5682 5682 5683 5683 5683 5683 5682 5681 5680 5679 5677 5676 5674 5672
5621 5623 5624 5625 5627 5628 5633 5631 5632 5633 5634 5635 5637 5639 5640 5643 5645 5647 5649 5652 5654 5657 5660 5662 5664 5667 5669 5671 5672 5674 5675 5675 5676 5676 5676 5676 5675 5674 5673 5672 5670 5668 5666 5664
5618 5619 5620 5622 5623 5625 5627 5627 5627 5628 5630 5631 5632 5634 5635 5637 5640 5642 5644 5646 5649 5652 5654 5657 5659 5661 5663 5665 5666 5667 5668 5669 5669 5669 5669 5669 5668 5667 5666 5665 5663 5661 5659 5657
5614 5616 5617 5618 5619 5621 5624 5623 5623 5625 5626 5627 5628 5629 5631 5633 5636 5638 5639 5641 5644 5646 5649 5651 5653 5655 5657 5659 5660 5661 5662 5663 5663 5663 5663 5662 5662 5661 5660 5658 5657 5655 5653 5650
5610 5611 5613 5614 5615 5617 5619 5619 5620 5622 5624 5623 5624 5625 5627 5629 5631 5633 5634 5637 5639 5641 5644 5646 5648 5650 5652 5653 5655 5656 5656 5657 5657 5657 5657 5656 5656 5655 5653 5652 5650 5648 5646 5643
5606 5607 5608 5609 5611 5615 5614 5615 5616 5618 5618 5619 5620 5621 5623 5624 5626 5628 5630 5632 5634 5637 5639 5641 5643 5645 5646 5648 5649 5650 5650 5651 5651 5651 5651 5650 5649 5649 5647 5646 5644 5642 5639 5637
5601 5603 5604 5606 5609 5609 5609 5610 5611 5613 5614 5615 5616 5617 5619 5620 5622 5624 5626 5628 5630 5632 5634 5636 5637 5639 5641 5642 5643 5644 5645 5645 5645 5645 5645 5644 5643 5642 5641 5639 5637 5635 5633 5630
5595 5596 5598 5600 5601 5602 5603 5605 5606 5608 5609 5610 5612 5613 5614 5616 5617 5619 5621 5623 5625 5626 5628 5630 5632 5633 5635 5636 5637 5638 5638 5639 5639 5639 5638 5638 5637 5635 5634 5632 5630 5628 5626 5623
5589 5589 5591 5592 5594 5595 5597 5599 5601 5602 5603 5605 5607 5608 5609 5611 5613 5614 5616 5618 5619 5621 5623 5624 5626 5627 5628 5630 5631 5631 5632 5632 5632 5632 5632 5631 5630 5628 5627 5625 5623 5621 5618 5616
5581 5581 5583 5585 5586 5588 5591 5592 5594 5596 5597 5599 5601 5602 5604 5605 5607 5608 5610 5612 5613 5615 5616 5618 5619 5620 5622 5623 5624 5624 5625 5625 5625 5625 5624 5623 5622 5621 5619 5617 5615 5613 5611 5608
Wind_Speed
44 43 43 40 40 39 38 38 39 40 41 42 42 43 42 42 42 41 41 42 43 44 45 44 44 43 42 41 41 40 39 39 38 37 36 35 35 35 35 35 36 36 37 37
41 40 39 38 38 38 37 37 37 38 39 40 41 42 42 43 42 41 40 41 42 43 44 44 44 43 42 42 41 41 41 40 39 38 38 37 37 37 37 37 37 38 39 40
38 38 38 38 38 37 36 35 35 37 38 39 41 42 43 42 43 42 41 41 42 43 44 45 44 43 42 42 42 42 42 41 41 40 39 39 38 38 38 38 39 40 41 42
37 37 37 37 36 35 34 34 34 35 37 38 39 40 40 41 42 42 41 41 42 43 44 44 43 43 42 42 43 43 43 42 42 41 40 40 39 39 40 40 40 41 42 43
34 35 35 34 34 33 33 33 33 33 34 36 38 39 39 41 41 40 41 41 42 43 43 43 43 42 42 42 42 43 42 42 42 41 40 39 39 40 40 41 42 43 44 45
29 31 31 31 32 32 31 32 32 32 34 36 36 38 38 39 38 39 40 41 41 43 43 44 43 42 42 42 42 42 42 41 41 40 40 40 40 41 42 43 44 45 45 46
27 28 28 29 30 31 31 31 32 33 35 35 34 37 35 35 37 39 39 40 41 42 43 44 43 42 42 42 42 42 41 40 40 40 41 41 42 43 44 45 45 45 46 46
25 25 27 27 28 27 29 30 30 31 31 31 33 35 33 34 36 38 39 40 41 42 43 43 43 43 42 41 41 41 41 41 41 42 42 43 44 44 44 45 45 45 45 46
23 24 26 26 26 26 28 28 27 28 29 30 32 32 33 33 34 35 37 37 38 39 41 42 42 41 41 41 41 41 42 42 42 43 43 43 43 43 43 43 43 44 44 44
22 23 25 26 26 26 26 26 27 28 28 29 29 29 30 30 31 33 35 36 37 38 39 39 40 40 41 41 41 42 42 42 42 42 42 42 42 41 42 42 42 42 42 42
21 22 24 26 27 26 26 27 28 28 29 29 28 27 27 28 30 32 33 35 36 37 38 38 38 38 39 39 40 40 41 41 41 40 40 40 40 40 40 41 40 40 40 40
18 20 21 22 23 25 26 27 27 28 29 28 28 28 26 27 28 30 31 33 34 36 37 37 37 38 38 38 38 38 38 38 38 38 38 38 38 38 38 38 38 38 38 37
18 18 19 21 22 23 24 25 26 27 28 28 28 27 26 26 26 27 28 30 32 34 35 36 36 37 37 37 36 36 35 35 35 35 35 36 36 36 36 36 35 35 35 35
18 18 18 19 20 20 21 21 23 25 26 25 24 23 24 25 25 25 26 28 30 32 33 34 34 34 34 34 33 32 32 32 32 32 32 33 33 33 33 33 33 32 32 33
17 17 18 19 19 20 20 21 22 22 22 23 22 23 23 24 24 25 25 26 28 30 30 31 31 30 30 30 29 29 28 28 28 29 29 29 29 30 30 30 30 30 31 31
17 17 18 19 19 19 19 20 20 21 21 21 22 22 21 22 23 23 24 25 26 26 27 27 27 26 26 26 26 26 26 26 26 25 25 25 26 26 27 27 28 28 29 30
14 15 17 18 19 19 17 17 19 19 19 21 21 19 22 21 21 23 25 25 24 24 23 23 23 23 23 23 23 23 23 23 22 22 22 23 23 24 24 25 25 26 27 28
14 15 15 15 17 17 15 16 17 17 19 19 19 21 21 20 20 22 24 24 23 22 21 21 21 21 21 21 21 21 20 20 20 20 20 21 21 21 22 22 23 24 25 26
14 15 15 15 15 14 14 15 15 15 16 18 18 19 20 19 20 21 22 22 21 21 20 20 20 20 20 20 20 20 19 18 18 18 18 18 18 19 20 20 21 22 23 24
15 15 15 15 15 14 14 15 14 14 15 15 16 17 17 17 18 19 21 20 20 20 20 20 20 20 20 19 19 19 18 17 17 16 16 17 17 18 18 19 21 22 23 24
16 16 16 15 15 14 14 14 14 14 13 14 14 15 16 17 18 19 19 19 20 20 21 21 20 20 20 19 18 18 18 17 16 16 16 16 17 18 19 20 21 22 23 24
17 17 17 17 16 15 15 15 15 14 14 14 14 15 16 17 17 18 18 19 20 21 21 21 20 20 19 19 18 17 17 16 16 16 16 17 17 18 19 21 22 23 24 24
19 18 18 18 18 17 17 17 16 16 16 16 16 16 16 17 17 18 19 19 20 21 21 21 21 21 20 19 19 18 17 17 17 17 18 18 19 20 21 22 23 24 24 25
21 21 20 20 20 20 20 19 18 17 17 17 17 16 17 17 17 18 19 20 20 21 22 22 22 22 21 21 20 20 19 19 19 19 19 20 20 21 22 23 24 24 25 26
22 22 23 23 23 23 22 22 21 20 19 19 18 18 18 19 19 20 20 21 21 22 23 23 23 23 23 23 22 22 21 21 21 21 21 21 22 23 24 25 25 25 26 27
23 25 25 25 25 26 24 24 24 23 22 21 21 20 20 21 21 22 23 23 24 24 25 25 25 25 25 25 24 24 24 24 24 24 23 24 24 25 25 26 26 27 27 28
Wind_Direction
190 196 200 203 206 210 215 219 222 223 225 227 227 226 226 227 227 224 224 225 226 227 227 229 231 234 236 238 240 242 245 247 251 254 258 261 264 266 269 272 274 276 277 278
188 193 196 200 204 207 211 214 217 221 223 225 225 225 225 228 229 227 226 226 227 228 228 229 231 233 236 239 242 244 246 248 251 254 258 260 263 266 268 271 273 276 278 279
190 192 195 199 202 207 211 215 218 221 223 226 226 226 226 228 230 230 228 228 228 229 229 230 231 233 236 239 243 246 248 250 253 255 258 261 263 266 268 270 272 274 276 278
185 188 193 197 203 207 211 215 219 222 224 227 228 229 227 228 230 230 230 230 230 231 231 232 232 234 236 239 243 246 249 252 254 257 259 261 263 266 268 271 273 275 276 277
183 186 190 196 201 206 210 215 219 223 226 228 229 230 226 228 230 231 231 231 231 232 233 233 234 235 237 240 243 246 249 252 255 258 260 262 264 267 270 272 274 275 276 277
184 186 190 194 200 205 210 215 219 224 228 230 231 233 227 227 229 230 232 232 232 233 235 235 235 237 239 241 243 246 249 252 255 258 261 264 266 269 271 273 274 275 276 278
182 186 190 193 199 205 211 216 221 225 230 232 233 235 228 225 226 229 231 232 232 234 235 236 236 237 239 241 244 246 249 252 254 258 262 265 268 270 271 273 274 275 276 278
184 189 192 196 201 207 213 219 225 232 237 239 238 238 231 226 226 228 229 231 231 233 235 236 238 239 240 241 244 246 249 252 256 259 262 265 267 269 270 271 273 275 276 279
192 194 197 200 204 210 215 220 226 234 239 242 241 239 234 229 228 229 230 230 231 232 233 234 236 239 241 243 245 248 250 254 257 260 262 265 266 268 269 271 273 275 277 279
194 197 200 204 208 213 218 223 228 234 241 245 245 241 236 231 230 230 230 229 229 230 232 233 235 238 241 243 246 249 252 254 257 260 262 264 266 267 269 272 274 276 277 278
201 203 206 209 214 219 223 227 231 237 242 246 247 243 237 234 232 232 231 230 229 230 232 234 236 238 241 244 247 249 252 255 257 260 262 264 266 268 271 273 274 276 277 278
202 206 211 215 218 222 226 230 235 239 244 248 249 246 240 236 234 234 233 233 232 233 234 236 238 240 243 246 248 251 254 256 259 261 263 265 267 269 271 273 274 276 277 279
205 208 212 217 220 223 227 231 235 239 244 246 246 244 242 240 237 235 234 234 235 236 237 238 240 243 245 248 251 253 255 257 260 262 264 266 268 269 271 273 275 277 278 279
213 216 219 222 225 227 230 232 236 239 242 245 246 244 238 239 240 240 238 237 236 237 238 240 242 245 247 249 251 254 256 258 260 262 264 266 268 270 272 273 275 277 279 281
220 222 224 226 228 230 231 235 239 243 246 246 243 241 236 236 237 239 238 237 237 237 239 241 243 245 247 249 251 253 255 257 260 263 265 267 269 271 273 274 276 278 281 284
225 226 228 229 232 235 238 241 244 246 246 245 242 241 241 238 237 237 236 235 235 235 237 240 242 243 244 246 249 251 254 256 260 263 265 267 269 272 274 276 278 280 283 286
227 229 232 233 235 238 240 243 245 245 244 243 241 239 239 239 236 234 233 233 233 234 236 238 239 240 241 243 246 248 251 255 259 263 265 268 271 274 276 279 281 284 286 289
231 233 235 235 237 239 240 241 245 245 243 244 242 240 241 238 234 232 232 232 233 233 234 235 237 238 239 241 243 246 249 254 258 263 266 269 273 276 279 281 284 286 289 291
235 236 236 237 240 241 242 242 244 245 244 244 241 241 241 237 234 231 232 232 231 230 232 234 235 236 237 240 242 245 249 253 258 262 266 270 274 278 280 283 286 289 291 293
235 236 237 238 240 240 241 243 244 245 244 243 240 238 237 234 231 229 230 229 228 230 232 232 233 235 237 239 242 245 249 253 257 263 268 272 276 279 282 284 288 291 294 295
237 238 238 238 238 237 238 239 240 241 241 238 237 235 233 230 230 230 231 230 230 230 230 231 233 234 236 239 243 246 249 253 258 264 269 273 276 279 282 286 289 292 295 296
241 241 240 239 239 236 237 237 237 239 238 238 237 235 233 232 233 233 232 232 232 232 231 231 233 235 237 240 244 247 250 253 259 265 270 274 278 281 283 286 289 292 294 296
243 243 241 241 241 240 240 240 239 238 239 239 239 239 238 237 236 234 234 234 235 234 233 234 236 237 239 241 245 248 252 256 261 266 270 275 279 282 284 287 290 292 294 295
245 246 245 243 242 242 242 241 241 240 241 240 240 240 239 239 238 236 236 235 235 236 237 238 239 240 242 244 247 251 255 259 263 268 272 275 279 282 285 287 290 292 294 295
247 248 248 246 244 243 243 242 242 242 242 242 243 242 241 241 240 240 240 240 239 240 241 243 244 245 246 248 251 253 256 260 264 268 272 276 279 281 284 287 289 291 293 295
249 250 248 247 246 245 243 244 244 243 242 243 243 244 243 242 242 241 243 244 244 245 246 247 248 249 250 252 254 256 258 261 264 268 272 276 279 281 284 286 288 290 293 294